Torna al catalogo

THOR ABLESTAR DEB

LostLEO
NORAD 48830·DEBRIS·🇺🇸 United States

Lanciato Jun 29, 1961 da Cape Canaveral Space Force Station

Loading…

Prossimi Passaggi (prossime 24 ore)

TLE

ObsoletoSource: Space-Track

Epoca: Mar 4, 2025, 10:31 UTC

1 48830U 61015NJ  25063.43860922  .00000505  00000-0  42145-3 0  9995
2 48830  66.9072  83.9376 0016505 226.8112 133.1592 13.96381581540389

Traccia THOR ABLESTAR DEB in tempo reale con AllMySat

Download on the App Store